Miscellaneous Local Product
Issued by NWS Hastings, NE

Home | Current Version | Previous Version | Text Only | Print | Product List | Glossary Off
Versions: 1 2 3 4 5 6 7 8 9 10 11 12 13 14 15 16 17 18 19 20 21 22 23 24 25 26 27 28 29 30 31 32 33 34 35 36 37 38 39 40 41 42 43 44 45 46 47 48 49 50

402
AXUS43 KGID 282102
MISGRI

GID CWA HOURLY WEATHER ROUNDUP
NATIONAL WEATHER SERVICE HASTINGS NE
400 PM CDT SAT MAY 28 2016

NOTE: "FAIR" INDICATES FEW OR NO CLOUDS BELOW 12,000 FEET WITH NO
SIGNIFICANT WEATHER AND/OR OBSTRUCTIONS TO VISIBILITY.

...SOUTH CENTRAL NEBRASKA...

CITY           SKY/WX    TMP DP  RH WIND       PRES   REMARKS
GRAND ISLAND   MOSUNNY   74  52  46 W18       29.88S
HASTINGS       PTSUNNY   74  52  46 NW15      29.89S
KEARNEY        MOSUNNY   73  52  46 NW10      29.91S
ORD            MOSUNNY   72  53  51 NW12      29.87R
YORK           PTSUNNY   70  57  64 NW16      29.87S
AURORA         SUNNY     72  57  58 NW15      29.88S
LEXINGTON      MOSUNNY   72  53  51 W8        29.91S
HOLDREGE       SUNNY     73  51  46 NW10      29.91S
HEBRON         MOSUNNY   75  55  49 NW14G21   29.88S

...NEBRASKA PANHANDLE...

CITY           SKY/WX    TMP DP  RH WIND       PRES   REMARKS
CHADRON        CLOUDY    73  48  41 SW7       29.91S
ALLIANCE       CLOUDY    71  48  43 VRB5      29.93S
SCOTTSBLUFF    SUNNY     76  42  29 SW7       29.92F
SIDNEY         MOSUNNY   71  43  36 S7        29.98S

...WESTERN AND NORTH CENTRAL NEBRASKA...

CITY           SKY/WX    TMP DP  RH WIND       PRES   REMARKS
VALENTINE      MOSUNNY   72  47  40 NW9       29.89S
AINSWORTH      MOSUNNY   71  50  47 NW9       29.90R
ONEILL         CLOUDY    69  55  61 NW16      29.87R
BROKEN BOW     MOSUNNY   73  54  51 NW9       29.90R
IMPERIAL       SUNNY     74  47  38 W12       29.95F
NORTH PLATTE   SUNNY     71  52  50 W10       29.92S
MCCOOK         MOSUNNY   75  51  43 NW10      29.93F

...EASTERN NEBRASKA...

CITY           SKY/WX    TMP DP  RH WIND       PRES   REMARKS
NORFOLK        PTSUNNY   67  55  65 W18       29.83R
SO SIOUX CITY  CLOUDY    70  61  73 NW14G22   29.74R
TEKAMAH        CLOUDY    68  58  70 W20G26    29.78R
COLUMBUS       MOSUNNY   70  54  56 W16G23    29.86R
ALBION         PTSUNNY   68  57  66 NW10G17   29.87R
OMAHA EPPLEY   PTSUNNY   71  56  58 W23G31    29.80S
OFFUTT AFB     PTSUNNY   73  56  55 SW17G24   29.81S
MILLARD        PTSUNNY   71  57  60 W16G23    29.81S
LINCOLN        MOSUNNY   75  57  53 W13       29.85R
NEBRASKA CITY  MOSUNNY   74  55  51 W22G28    29.84S
BEATRICE       MOSUNNY   73  58  59 W14G21    29.87R
FALLS CITY     MOSUNNY   76  59  55 W13       29.86R

...NORTHERN KANSAS...

CITY           SKY/WX    TMP DP  RH WIND       PRES   REMARKS
GOODLAND       MOSUNNY   75  46  35 SW8       29.99S
HILL CITY      MOSUNNY   78  50  37 W9        29.94F
NORTON         PTCLDY    75  43  31 SW13G18   29.93S
PHILLIPSBURG   MOSUNNY   75  54  46 NW7G20    29.93S
SMITH CENTER   MOSUNNY   75  57  53 W12       29.93R
BELOIT         MOSUNNY   75  54  46 SW12G17   29.91S
HAYS           SUNNY     75  52  43 NW8G16    29.95S
RUSSELL        MOSUNNY   74  56  53 NW8       29.93S
CONCORDIA      MOSUNNY   75  56  51 W13G21    29.91R
SALINA         MOSUNNY   78  56  46 W8        29.93R
TOPEKA         SUNNY     77  59  53 W10       29.90S



USA.gov is the U.S. government's official web portal to all federal, state and local government web resources and services.